STARLINK-1273 (45367 NORAD) Tracking and Keplerian Element Data

This shows tracking and keplerian element data for the satellite.

Feedback or suggestion? Click here.




ElementValue
Catalog45367
NameSTARLINK-1273
Epoch Orbit2953
Epoch Day268.91668981
Epoch Year2020
RAAN108.0335
Inclination52.9997
Eccentricity0.0001537
Argument of Perigee75.0138
Mean Anonmoly288.5947
Mean Motion15.05570794
Decay Rate0.00011839
L11 45367U 20019H 20268.91668981 .00011839 00000-0 83057-3 0 9991
L22 45367 52.9997 108.0335 0001537 75.0138 288.5947 15.05570794 29533

Live tracking and technical data element details for STARLINK-1273 (NORAD 45367). STARLINK-1273 can be tracked NOW for your location showing map with azimuth and elevation plus other details from your city location.

Track the satellite on the map from your city or location and see movement details for azimuth, elevation, latitude, longitude, range, height, and movement on the map or in text.







IsCatalogInMostPopularTable: catalog: 45367, numindb: 42
Update: records affected: 1



GetName: 45367 STARLINK-1273

Hit Count: updated at: Fri, 25 Sep 2020 12:35:06 GMT